Location: Mason
(37.5237°N, 89.2543°W)
Time: 13:08:52
(UTC+00:00)

Cosmos 1814 Rocket - Pass Details

Date: 08 December 2021
Orbit: 745 x 787 km, 74.1° (Epoch: 20 January)

Event Time Altitude Azimuth Distance (km) Brightness Sun altitude
Rises 23:12:43 0° 201° (SSW) 3,223 8.0 -6.9°
Reaches altitude 10° 23:15:06 10° 204° (SSW) 2,294 7.2 -7.3°
Maximum altitude 23:20:18 73° 289° (WNW) 795 4.3 -8.3°
Drops below altitude 10° 23:25:28 10° 14° (NNE) 2,283 6.1 -9.2°
Sets 23:27:50 0° 16° (NNE) 3,206 6.9 -9.7°
